Regional Weather Roundup
Issued by NWS

Home | Current Version | Previous Version | Graphics & Text | Print | Product List | Glossary On
Versions: 1 2 3 4 5 6 7 8 9 10 11 12 13 14 15 16 17 18 19 20 21 22 23 24 25 26 27 28 29 30 31 32 33 34 35 36 37 38 39 40 41 42 43 44 45 46 47 48 49 50
000
ASUS43 KOAX 071110
RWRNE

WEATHER ROUNDUP FOR NEBRASKA
NATIONAL WEATHER SERVICE OMAHA NE
500 AM CST SUN FEB 07 2016

NOTES: SATELLITE DATA IS BEING USED TO AUGMENT CLOUD COVER ABOVE
       12000 FEET.
       "FAIR" INDICATES FEW OR NO CLOUDS BELOW 12,000 FEET WITH NO
       SIGNIFICANT WEATHER AND/OR OBSTRUCTIONS TO VISIBILITY.

  * THESE STATIONS DO NOT REPORT WEATHER SUCH AS RAIN...SNOW OR FOG.

NEZ001>004-019>022-054>056-071200-
NEBRASKA PANHANDLE

CITY           SKY/WX    TMP DP  RH WIND       PRES   REMARKS
SCOTTSBLUFF    CLOUDY    31  20  63 W12       30.17R WCI  22
ALLIANCE       CLOUDY    31  20  63 NW17      30.12R WCI  19
CHADRON        CLOUDY    34  24  67 W12       30.15R WCI  25
KIMBALL        CLEAR     28  17  61 NW15      30.16R WCI  17
SIDNEY         MOCLDY    23  15  71 W10       30.16R WCI  12
$$

NEZ057>060-069>072-079>082-071200-
SOUTHWEST NEBRASKA

CITY           SKY/WX    TMP DP  RH WIND       PRES   REMARKS
NORTH PLATTE   CLOUDY    29  20  69 W14       30.09R WCI  18
IMPERIAL       CLEAR     30  19  63 NW13      30.12R WCI  20
LEXINGTON      CLOUDY    33  26  74 W17       30.06S WCI  22
MCCOOK         MOCLDY    32  24  72 W13       30.10R WCI  22
OGALLALA       PTCLDY    30  19  62 NW14      30.12R WCI  19
$$

NEZ005>010-023>029-035>040-094-071200-
NORTH CENTRAL NEBRASKA

CITY           SKY/WX    TMP DP  RH WIND       PRES   REMARKS
VALENTINE      CLOUDY    36  23  59 W15       30.04R WCI  27
AINSWORTH      MOCLDY    35  24  64 W12       30.03R WCI  27
BROKEN BOW     CLOUDY    38  23  55 NW12      30.04R WCI  30
O`NEILL        CLEAR     36  25  63 W16G22    30.00R WCI  26
ORD            CLEAR     37  23  56 NW16      30.02R WCI  28
THEDFORD       CLOUDY    36  27  69 W10       30.07S WCI  28
$$

NEZ041-046>049-061>064-073>077-083>087-071200-
SOUTH CENTRAL NEBRASKA

CITY           SKY/WX    TMP DP  RH WIND       PRES   REMARKS
GRAND ISLAND   PTCLDY    33  23  66 NW15      30.00F WCI  23
AURORA         CLOUDY    33  25  73 NW12      29.99S WCI  24
HASTINGS       CLOUDY    35  25  66 NW17      30.01S WCI  25
HEBRON         CLOUDY    36  28  73 NW7       30.02R WCI  30
HOLDREGE       CLOUDY    34  25  70 NW9       30.04S WCI  26
YORK           PTCLDY    32  27  80 NW14      29.99S WCI  22
$$

NEZ011>018-030>034-042>045-071200-
NORTHEAST NEBRASKA

CITY           SKY/WX    TMP DP  RH WIND       PRES   REMARKS
NORFOLK        CLEAR     38  25  59 W15       29.96R WCI  29
ALBION         CLEAR     36  24  61 NW17      29.99R WCI  25
BLAIR          CLOUDY    33  26  76 W8        29.93S WCI  26
COLUMBUS *     CLOUDY    39  21  48 NW24G31   29.95F WCI  28
FREMONT        CLOUDY    28  22  78 W10       29.94S WCI  18
TEKAMAH        CLEAR     37  26  64 NW16      29.93R WCI  28
WAYNE          CLEAR     37  26  65 NW17G24   29.94R WCI  27
$$

NEZ050>053-065>068-078-088>093-071200-
SOUTHEAST NEBRASKA

CITY           SKY/WX    TMP DP  RH WIND       PRES   REMARKS
LINCOLN        PTCLDY    38  26  62 NW10      29.99R WCI  31
OMAHA EPPLEY   CLOUDY    36  27  69 NW16      29.94R WCI  26
BEATRICE       CLOUDY    30  27  88 CALM      29.99S
FALLS CITY     CLOUDY    36  28  73 W10       29.97R WCI  28
NEBRASKA CITY  CLOUDY    35  28  76 NW10      29.96R WCI  27
PLATTSMOUTH    CLOUDY    36  28  73 NW13      29.94S WCI  27
$$

NEZ044-045-051>053-067-071200-
OMAHA AREA

CITY           SKY/WX    TMP DP  RH WIND       PRES   REMARKS
OMAHA EPPLEY   CLOUDY    36  27  69 NW16      29.94R WCI  26
BLAIR          CLOUDY    33  26  76 W8        29.93S WCI  26
FREMONT        CLOUDY    28  22  78 W10       29.94S WCI  18
MILLARD        PTCLDY    34  28  76 NW5       29.95S WCI  30
OFFUTT AFB     CLOUDY    33  27  78 W8        29.94R WCI  26
PLATTSMOUTH    CLOUDY    36  28  73 NW13      29.94S WCI  27
WAHOO          FAIR      40  27  59 NW17      29.95S WCI  31
$$



USA.gov is the U.S. government's official web portal to all federal, state and local government web resources and services.